Home   Weather   Kryvyi Rih   Past weeks

Flag for Ukraine Past Weather in Kryvyi Rih, Ukraine — Yesterday and Last 2 Weeks

Now
23 °F

Clear.


Feels Like: 10 °F
Forecast: 8 / 28 °F
Wind: 15 mph from West

Location: Krivyy Rih / Dnipropetrovs'k

Current Time: Dec 6, 2016 at 5:10:44 am

Latest Report: Dec 6, 2016 at 4:30 am


Visibility: 10 mi

Pressure: 30.15 "Hg

Humidity: 80%

Dew Point: 18 °F

Location of Kryvyi RihLocation

Past Weather in Kryvyi Rih — Graph

°F

Kryvyi Rih Temperature Yesterday

Maximum temperature yesterday: 23 °F (at 12:00 am)
Minimum temperature yesterday: 12 °F (at 4:00 am)
Average temperature yesterday: 17 °F

High & Low Weather Summary for the Past Weeks

 TemperatureHumidityPressure
High43 °F (Nov 27, 4:00 pm)100% (Nov 24, 7:00 am)30.60 "Hg (Nov 24, 7:00 am)
Low12 °F (Dec 5, 4:00 am)55% (Nov 23, 2:00 pm)29.36 "Hg (Dec 2, 10:30 pm)
Average28 °F85%30.10 "Hg
* Reported Nov 21 4:00 am — Dec 6 4:00 am, Kryvyi Rih, Weather by CustomWeather, © 2016

Note: Actual official high and low records may vary slightly from our data, if they occured in-between our weather recording intervals... More about our weather records

Advertising

Kryvyi Rih Weather History for the Previous 24 Hours

Scroll right to see more
 ConditionsComfort  
Time TempWeatherWind HumidityBarometerVisibility
4:00 am
Tue, Dec 6
23 °FClear.15 mph80%30.15 "Hg10 mi
3:30 am23 °FClear.17 mph80%30.18 "Hg10 mi
3:00 am23 °FClear.15 mph80%30.18 "Hg10 mi
2:30 am23 °FClear.17 mph80%30.21 "Hg10 mi
2:00 am23 °FClear.15 mph80%30.21 "Hg10 mi
1:30 am23 °FClear.15 mph80%30.21 "Hg10 mi
1:00 am23 °FClear.22 mph80%30.21 "Hg10 mi
12:30 am23 °FClear.17 mph74%30.24 "Hg10 mi
12:00 am23 °FClear.17 mph74%30.24 "Hg10 mi
11:30 pm
Mon, Dec 5
21 °FClear.17 mph80%30.27 "Hg10 mi
11:00 pm21 °FClear.20 mph80%30.27 "Hg10 mi
10:30 pm19 °FClear.17 mph79%30.30 "Hg10 mi
10:00 pm19 °FClear.13 mph79%30.30 "Hg10 mi
9:30 pm16 °FClear.13 mph86%30.30 "Hg10 mi
9:00 pm16 °FClear.13 mph86%30.33 "Hg10 mi
8:30 pm16 °FClear.13 mph86%30.33 "Hg10 mi
8:00 pm16 °FClear.8 mph86%30.33 "Hg10 mi
7:30 pm16 °FClear.10 mph86%30.36 "Hg10 mi
7:00 pm16 °FClear.13 mph86%30.36 "Hg10 mi
6:30 pm16 °FClear.10 mph79%30.36 "Hg10 mi
6:00 pm16 °FClear.10 mph79%30.39 "Hg10 mi
5:30 pm16 °FClear.10 mph79%30.39 "Hg10 mi
5:00 pm16 °FClear.8 mph79%30.39 "Hg10 mi
4:30 pm16 °FClear.6 mph79%30.42 "Hg10 mi
4:00 pm16 °FClear.8 mph79%30.42 "Hg10 mi
3:30 pm19 °FSunny.8 mph73%30.42 "Hg10 mi
3:00 pm19 °FSunny.8 mph73%30.42 "Hg10 mi
2:30 pm21 °FSunny.10 mph63%30.45 "Hg10 mi
2:00 pm21 °FSunny.10 mph63%30.45 "Hg10 mi
1:30 pm21 °FSunny.10 mph68%30.45 "Hg10 mi
1:00 pm21 °FSunny.8 mph68%30.45 "Hg10 mi
12:30 pm18 °FSunny.6 mph79%30.45 "Hg10 mi
12:00 pm18 °FSunny.6 mph79%30.48 "Hg10 mi
11:30 am18 °FSunny.6 mph68%30.48 "Hg10 mi
11:00 am16 °FSunny.6 mph86%30.48 "Hg10 mi
10:30 am16 °FSunny.6 mph86%30.48 "Hg10 mi
10:00 am16 °FSunny.6 mph86%30.48 "Hg10 mi
9:30 am16 °FSunny.3 mph79%30.48 "Hg10 mi
9:00 am16 °FPassing clouds.6 mph79%30.48 "HgN/A
8:30 am16 °FPassing clouds.3 mph79%30.45 "HgN/A
8:00 am16 °FPassing clouds.3 mph79%30.45 "HgN/A
7:30 am16 °FPartly sunny.3 mph86%30.45 "HgN/A
7:00 am16 °FPassing clouds.6 mph86%30.42 "HgN/A
6:30 am16 °FPassing clouds.3 mph93%30.42 "HgN/A
6:00 am16 °FPassing clouds.6 mph93%30.42 "HgN/A
5:30 am12 °FClear.6 mph92%30.39 "Hg10 mi
5:00 am12 °FClear.6 mph92%30.39 "Hg10 mi
Weather by CustomWeather, © 2016

See weather overviewHow to use our weather pages